Burns Flat, OK

2:31 AM CST on February 06, 2016 (GMT -0600)
Clinton-Sherman

Weather History for KCSM - May, 2014

Change the Weather History Date:

Wednesday, May 14, 2014

  Actual Average Record
Temperature  
Mean Temperature 57 °F -  
Max Temperature 73 °F 79 °F 90 °F (2013)
Min Temperature 42 °F 55 °F 42 °F (2011)
Degree Days  
Heating Degree Days 8    
Growing Degree Days 7 (Base 50)    
Moisture  
Dew Point 26 °F    
Average Humidity 34    
Maximum Humidity 58    
Minimum Humidity 15    
Precipitation  
Precipitation 0.00 in - - ()
Sea Level Pressure  
Sea Level Pressure 30.26 in    
Wind  
Wind Speed 9 mph (NW)    
Max Wind Speed 16 mph    
Max Gust Speed 24 mph    
Visibility 10 miles    
Events      
Averages and records for this station are not official NWS values.
T = Trace of Precipitation, MM = Missing Value Source: NWS Daily Summary

Daily Weather History Graph

Daily Weather History Graph

Search for Another Location

Airport or City:

Trip Planner

Search our weather history database for the weather conditions in past years. The results will help you decide how hot, cold, wet, or windy it might be!

Date:

Astronomy

May. 14, 2014 Rise Set
Actual Time 6:33 AM CDT 8:33 PM CDT
Civil Twilight 6:05 AM CDT 9:01 PM CDT
Nautical Twilight 5:30 AM CDT 9:36 PM CDT
Astronomical Twilight 4:54 AM CDT 10:12 PM CDT
Moon 8:41 PM CDT (5/14) 6:31 AM CDT (5/14)
Length of Visible Light 14h 56m
Length of Day
14h 00m
Full, 100% of the Moon is Illuminated
May 14
Full
May 14
Full
May 21
Last Quarter
May 28
New
Jun 5
First Quarter

Hourly Weather History & Observations

Time (CDT) Temp. Windchill Dew Point Humidity Pressure Visibility Wind Dir Wind Speed Gust Speed Precip Events Conditions
12:53 AM 46.0 °F 43.1 °F 27.0 °F 47% 30.31 in 10.0 mi NW 5.8 mph - N/A   Clear
1:53 AM 43.0 °F 38.8 °F 28.0 °F 56% 30.31 in 10.0 mi NW 6.9 mph - N/A   Clear
3:53 AM 42.1 °F 37.1 °F 28.0 °F 58% 30.30 in 10.0 mi NW 8.1 mph - N/A   Clear
4:53 AM 43.0 °F 37.7 °F 28.0 °F 56% 30.30 in 10.0 mi NW 9.2 mph - N/A   Clear
5:53 AM 43.0 °F 38.2 °F 28.0 °F 56% 30.30 in 10.0 mi NW 8.1 mph - N/A   Clear
6:53 AM 43.0 °F 38.2 °F 27.0 °F 53% 30.31 in 10.0 mi NW 8.1 mph - N/A   Clear
7:53 AM 50.0 °F - 27.0 °F 41% 30.30 in 10.0 mi NW 9.2 mph - N/A   Clear
8:53 AM 55.0 °F - 28.0 °F 35% 30.31 in 10.0 mi NNW 11.5 mph - N/A   Clear
10:53 AM 63.0 °F - 30.0 °F 29% 30.31 in 10.0 mi NW 11.5 mph - N/A   Clear
11:53 AM 66.0 °F - 28.9 °F 25% 30.30 in 10.0 mi NW 15.0 mph 19.6 mph N/A   Clear
12:53 PM 68.0 °F - 27.0 °F 21% 30.28 in 10.0 mi North 13.8 mph 19.6 mph N/A   Partly Cloudy
1:53 PM 70.0 °F - 25.0 °F 18% 30.25 in 10.0 mi North 16.1 mph 23.0 mph N/A   Scattered Clouds
2:53 PM 68.0 °F - 25.0 °F 20% 30.25 in 10.0 mi North 15.0 mph 24.2 mph N/A   Scattered Clouds
4:53 PM 72.0 °F - 21.0 °F 15% 30.20 in 10.0 mi NNW 15.0 mph 23.0 mph N/A   Partly Cloudy
5:53 PM 68.0 °F - 19.9 °F 16% 30.20 in 10.0 mi North 15.0 mph 23.0 mph N/A   Clear
6:53 PM 69.1 °F - 21.0 °F 16% 30.20 in 10.0 mi North 16.1 mph 21.9 mph N/A   Clear
7:53 PM 64.9 °F - 21.0 °F 19% 30.19 in 10.0 mi NNW 6.9 mph - N/A   Clear
8:53 PM 59.0 °F - 21.9 °F 24% 30.21 in 10.0 mi North 4.6 mph - N/A   Clear
10:53 PM 48.0 °F - 24.1 °F 39% 30.22 in 10.0 mi SSW 3.5 mph - N/A   Clear
11:53 PM 48.0 °F - 25.0 °F 41% 30.22 in 10.0 mi SSW 3.5 mph - N/A   Clear